[[{"header":{"parameterUnit":"m.s-1","parameterCategory":2,"la1":30.2991,"la2":30.254,"lo1":-89.0895,"lo2":-89.0444,"dy":0.0017,"dx":0.0017,"nx":28,"ny":28,"refTime":"2023-06-18T21:00:00:Z","depth":"0","parameterNumber":2,"parameterNumberName":"U-component_of_CURRENTS"},"data":[0,0,0,0,0,0,0,0,0,0,0,0,0,0,0,0,0,0,0,0,0,0,0,0,0,0,0,0,0,0,0,0,0,0,0,0,0,0,0,0,0,0,0,0,0,0,0,0,0,0,0,0,0,0,0,0,0,0,0.3287,0.3289,0,0.3592,0.3596,0.3601,0.3626,0.3622,0.3617,0.3613,0.3857,0.3867,0.3877,0,0,0,0,0,0,0,0,0,0,0,0,0,0.3068,0.307,0.3287,0.3289,0.3292,0.3591,0.3596,0.3602,0.3627,0.3621,0.3616,0.3611,0.3853,0.3866,0.3878,0,0,0,0,0,0,0,0,0,0,0,0,0,0.3257,0.3071,0.3286,0.3332,0.3338,0.359,0.3597,0.3603,0.3628,0.3621,0.3615,0.3609,0.3849,0.3864,0.388,0.4111,0,0,0.3929,0.3936,0,0,0,0,0,0,0,0,0.3246,0.3267,0.3322,0.3329,0.3336,0.3553,0.3608,0.3766,0.363,0.3531,0.3613,0.3605,0.3747,0.3771,0.3861,0.4122,0.4133,0.393,0.394,0.3947,0.3951,0,0,0,0,0,0,0,0.3233,0.3256,0.342,0.3325,0.3334,0.3453,0.3471,0.3641,0.3681,0.3539,0.3538,0.3555,0.375,0.3846,0.3866,0.4136,0.393,0.3944,0.3954,0.396,0.4542,0.4548,0,0,0,0,0,0,0.3161,0.3242,0.341,0.3428,0.326,0.346,0.3481,0.35,0.368,0.3698,0.356,0.3555,0.3822,0.3848,0.3875,0.4099,0.3947,0.3961,0.3971,0.4536,0.4544,0.455,0,0,0,0,0,0,0.3155,0.3173,0.3398,0.3332,0.3366,0.3466,0.3492,0.351,0.3609,0.3695,0.3712,0.3636,0.3818,0.3852,0.4047,0.4109,0.3969,0.3983,0.4529,0.4539,0.4547,0.4586,0,0,0,0,0,0,0.3148,0.317,0.3196,0.3327,0.3367,0.3578,0.3497,0.352,0.3622,0.3619,0.3768,0.3783,0.3815,0.4024,0.4063,0.4129,0.3995,0.4522,0.4533,0.4544,0.4577,0.4595,0.461,0,0,0,0,0,0.3139,0.3204,0.3195,0.3217,0.3387,0.3583,0.3621,0.3676,0.3632,0.3731,0.3806,0.3778,0.4119,0.4044,0.4088,0.4159,0.4516,0.453,0.4543,0.4569,0.4591,0.461,0,0,0,0,0,0,0.3129,0.3215,0.3208,0.3293,0.3431,0.3581,0.3675,0.371,0.386,0.384,0.3894,0.3922,0.4098,0.4164,0.4078,0.4364,0.4302,0.4325,0.4307,0.4329,0.4345,0.4257,0.4009,0,0,0,0,0,0.3133,0.3198,0.3311,0.339,0.3452,0.3571,0.366,0.3706,0.3832,0.389,0.3978,0.4082,0.4205,0.4285,0.4408,0.4614,0.4546,0.4682,0.4699,0.4712,0.4677,0.4651,0.4658,0.4594,0.4594,0.4593,0,0,0.3143,0.3205,0.3238,0.3393,0.3494,0.3652,0.3614,0.3767,0.389,0.39,0.4097,0.4157,0.4274,0.4457,0.4543,0.4512,0.47,0.4729,0.4738,0.4695,0.4665,0.467,0.4674,0.4603,0.4601,0.46,0,0,0.3238,0.3262,0.3365,0.349,0.3644,0.3734,0.3778,0.3947,0.4007,0.4221,0.4214,0.431,0.4559,0.461,0.4675,0.4885,0.4781,0.4933,0.4959,0.4937,0.4938,0.4938,0.4841,0.4832,0.4948,0.4948,0.4948,0,0.3245,0.3362,0.344,0.3594,0.3669,0.3769,0.3903,0.405,0.4254,0.427,0.4284,0.451,0.4621,0.4754,0.4819,0.4912,0.4843,0.4859,0.4944,0.4944,0.4943,0.4843,0.4833,0.4952,0.4951,0.4951,0.495,0,0.3435,0.3526,0.361,0.3798,0.3925,0.406,0.4215,0.4336,0.4388,0.4456,0.4576,0.4708,0.4791,0.4875,0.4929,0.4994,0.4925,0.4947,0.4857,0.4949,0.4842,0.483,0.4957,0.4955,0.4954,0.4953,0,0,0.3413,0.3674,0.3699,0.3754,0.4006,0.4103,0.4317,0.4457,0.4489,0.4668,0.4676,0.4914,0.4862,0.4933,0.4984,0.5001,0.4971,0.4976,0.4973,0.4811,0.4839,0.462,0.4585,0.4983,0.4982,0.4981,0.4754,0,0.3511,0.3748,0.387,0.4059,0.4162,0.428,0.4438,0.4571,0.4656,0.4713,0.4777,0.4846,0.4929,0.4926,0.4965,0.4963,0.4944,0.5025,0.4832,0.4824,0.4563,0.4567,0.441,0.4179,0.4741,0.4739,0.4737,0,0.3633,0.3753,0.394,0.4066,0.4114,0.4244,0.4346,0.4504,0.4622,0.4664,0.471,0.4746,0.4813,0.4858,0.4855,0.4887,0.4861,0.4854,0.4845,0.4605,0.4583,0.4192,0.4134,0.4121,0.4718,0.4719,0.4721,0,0.3527,0.3761,0.386,0.3936,0.4158,0.4193,0.4289,0.4439,0.4508,0.4586,0.4577,0.4656,0.4641,0.4671,0.4699,0.4758,0.4622,0.4702,0.4465,0.4447,0.4253,0.4218,0.4094,0.4655,0.4656,0.4657,0.4657,0,0.3561,0.3629,0.379,0.3857,0.3903,0.4069,0.4112,0.4231,0.4337,0.4351,0.4491,0.4475,0.4589,0.4553,0.4606,0.4451,0.4542,0.4414,0.4368,0.4266,0.4236,0.4168,0.4201,0.4648,0.465,0.4652,0.4653,0,0.3492,0.3618,0.37,0.3848,0.3872,0.3899,0.4024,0.4039,0.4165,0.4179,0.4192,0.4291,0.4227,0.4292,0.4279,0.4258,0.4067,0.4124,0.395,0.3886,0.3637,0.3678,0.3262,0.3186,0.3796,0.3789,0.3783,0,0.3503,0.3544,0.3644,0.3645,0.371,0.3759,0.3778,0.3941,0.3965,0.4051,0.4015,0.3979,0.3926,0.3789,0.3761,0.3692,0.375,0.3475,0.3586,0.3536,0.3553,0.3472,0.344,0.3351,0.3342,0.3335,0.3329,0,0.3479,0.349,0.3551,0.3531,0.3528,0.3543,0.358,0.3589,0.3728,0.3733,0.3671,0.3629,0.3499,0.3336,0.3242,0.3225,0.331,0.3315,0.3342,0.3218,0.3043,0.2978,0.356,0.3265,0.3271,0.3276,0.328,0.3282,0.3411,0.3397,0.3408,0.3368,0.3365,0.3289,0.3235,0.3263,0.3248,0.3204,0.329,0.3146,0.3087,0.2922,0.2868,0.2703,0.2779,0.2682,0.2736,0.2656,0.2568,0.294,0.2558,0.256,0.2562,0.2564,0.2565,0,0.3246,0.3234,0.322,0.3147,0.305,0.3099,0.3059,0.2967,0.2844,0.2845,0.2769,0.2649,0.2488,0.2473,0.2331,0.2217,0.2183,0.2176,0.2137,0.2145,0.2542,0.2518,0.2014,0.2014,0.2014,0.2014,0.2014,0.2014,0.3148,0.3059,0.3025,0.2817,0.2764,0.2581,0.2512,0.2416,0.2398,0.2217,0.2132,0.2139,0.2229,0.2157,0.2029,0.1975,0.1942,0.1717,0.1816,0.2264,0.2321,0.2376,0.2364,0.1836,0.1836,0.1334,0.1331,0.1329]},{"header":{"parameterUnit":"m.s-1","parameterCategory":2,"la1":30.2991,"la2":30.254,"lo1":-89.0895,"lo2":-89.0444,"dy":0.0017,"dx":0.0017,"nx":28,"ny":28,"refTime":"2023-06-18T21:00:00:Z","depth":"0","parameterNumber":3,"parameterNumberName":"V-component_of_CURRENTS"},"data":[0,0,0,0,0,0,0,0,0,0,0,0,0,0,0,0,0,0,0,0,0,0,0,0,0,0,0,0,0,0,0,0,0,0,0,0,0,0,0,0,0,0,0,0,0,0,0,0,0,0,0,0,0,0,0,0,0,0,-0.0095,-0.0096,0,-0.0203,-0.0204,-0.0206,-0.0235,-0.0235,-0.0234,-0.0233,-0.0195,-0.0195,-0.0195,0,0,0,0,0,0,0,0,0,0,0,0,0,-0.0006,-0.0007,-0.0095,-0.0096,-0.0098,-0.0203,-0.0204,-0.0206,-0.0236,-0.0235,-0.0234,-0.0233,-0.0195,-0.0195,-0.0195,0,0,0,0,0,0,0,0,0,0,0,0,0,-0.0073,-0.0007,-0.0095,-0.0124,-0.0128,-0.0203,-0.0205,-0.0206,-0.0236,-0.0235,-0.0234,-0.0233,-0.0196,-0.0195,-0.0195,-0.0213,0,0,-0.0193,-0.0193,0,0,0,0,0,0,0,0,-0.0069,-0.0076,-0.0119,-0.0122,-0.0126,-0.0204,-0.0159,-0.0201,-0.0236,-0.0196,-0.0233,-0.0232,-0.0185,-0.0185,-0.0211,-0.0211,-0.0209,-0.0193,-0.0193,-0.0192,-0.0192,0,0,0,0,0,0,0,-0.0064,-0.0072,-0.0139,-0.012,-0.0125,-0.0163,-0.0171,-0.0168,-0.0193,-0.0199,-0.0201,-0.0212,-0.0186,-0.0212,-0.021,-0.0209,-0.0193,-0.0192,-0.0192,-0.0192,-0.0015,-0.0011,0,0,0,0,0,0,-0.0045,-0.0067,-0.0135,-0.0142,-0.0093,-0.0165,-0.0174,-0.0181,-0.0196,-0.0199,-0.0213,-0.0213,-0.0213,-0.0211,-0.0209,-0.0085,-0.0192,-0.0192,-0.0192,-0.0019,-0.0014,-0.0009,0,0,0,0,0,0,-0.0043,-0.005,-0.0131,-0.0107,-0.0119,-0.0167,-0.0175,-0.0184,-0.0205,-0.0208,-0.0208,-0.0225,-0.0212,-0.0209,-0.0174,-0.0088,-0.0192,-0.0191,-0.0025,-0.0018,-0.0012,0.007,0,0,0,0,0,0,-0.004,-0.0049,-0.0051,-0.0105,-0.012,-0.0166,-0.0177,-0.0186,-0.0213,-0.0214,-0.0218,-0.0214,-0.0211,-0.0175,-0.0174,-0.009,-0.0191,-0.003,-0.0022,-0.0014,0.0062,0.0079,0.0093,0,0,0,0,0,-0.0036,-0.0045,-0.0051,-0.0059,-0.012,-0.0166,-0.0177,-0.0209,-0.0214,-0.0224,-0.0205,-0.0214,-0.0119,-0.0173,-0.0172,-0.0086,-0.0034,-0.0024,-0.0014,0.0055,0.0076,0.0093,0,0,0,0,0,0,-0.0009,-0.005,-0.0058,-0.0078,-0.0112,-0.017,-0.0189,-0.0209,-0.0211,-0.0203,-0.0199,-0.0194,-0.0116,-0.0116,-0.0175,-0.0,-0.0061,-0.0051,-0.0008,0.0011,0.0026,0.0052,-0.019,0,0,0,0,0,-0.0003,-0.0017,-0.0061,-0.0076,-0.0093,-0.014,-0.0164,-0.0184,-0.0195,-0.0199,-0.019,-0.0147,-0.0078,-0.0051,-0.0014,0.0046,0.0027,0.0121,0.0137,0.0149,0.0178,0.0208,0.0227,0.0023,0.0023,0.0023,0,0,0.0007,-0.0021,-0.0026,-0.007,-0.0103,-0.0089,-0.0152,-0.0185,-0.014,-0.0189,-0.0126,-0.0112,-0.0051,0.0038,0.0077,0.0049,0.0195,0.0162,0.0172,0.0194,0.022,0.0239,0.0256,0.003,0.0028,0.0027,0,0,0.0024,-0.0007,-0.0007,-0.002,-0.0061,-0.0075,-0.0078,-0.0122,-0.0111,-0.0073,-0.0051,0.0014,0.0065,0.015,0.02,0.0325,0.0269,0.0344,0.0444,0.0473,0.0489,0.0503,0.0471,0.0482,0.0359,0.0359,0.0359,0,0.004,0.0055,-0.0015,-0.0004,0.0021,-0.0052,-0.0007,-0.0012,-0.0026,0.002,-0.0029,0.0119,0.0143,0.032,0.037,0.0363,0.0331,0.0356,0.0489,0.0502,0.0515,0.0479,0.049,0.0364,0.0364,0.0363,0.0363,0,0.0073,0.0101,0.01,0.0121,0.0122,0.0141,0.0141,0.0158,0.0161,0.0176,0.0294,0.0311,0.0411,0.0443,0.0439,0.0584,0.0512,0.0489,0.0424,0.0539,0.0495,0.0504,0.0372,0.037,0.0368,0.0367,0,0,0.0098,0.0126,0.0136,0.0198,0.0208,0.022,0.0301,0.0373,0.0457,0.0445,0.0566,0.0668,0.0642,0.0701,0.0706,0.0732,0.0772,0.0645,0.0644,0.0585,0.0776,0.0684,0.0683,0.0743,0.0747,0.0749,0.0695,0,0.017,0.0251,0.0246,0.0372,0.0433,0.0434,0.0527,0.0578,0.0611,0.0695,0.073,0.0825,0.0756,0.0797,0.082,0.0792,0.0805,0.0786,0.0701,0.0699,0.058,0.0696,0.0703,0.0652,0.0703,0.0704,0.0705,0,0.0231,0.0291,0.0416,0.055,0.0575,0.0638,0.0788,0.0857,0.0949,0.0971,0.1041,0.1027,0.1106,0.1001,0.1002,0.0976,0.0897,0.0843,0.0839,0.0739,0.0627,0.0558,0.0666,0.0619,0.0719,0.0717,0.0717,0,0.0321,0.043,0.0552,0.0595,0.0706,0.0783,0.0851,0.0949,0.1034,0.1138,0.118,0.1242,0.1257,0.1198,0.1062,0.1033,0.1003,0.0956,0.0802,0.0791,0.078,0.0764,0.0818,0.0964,0.0965,0.0965,0.0965,0,0.0428,0.0533,0.0603,0.0678,0.0842,0.0877,0.1045,0.1117,0.1217,0.1322,0.1319,0.1382,0.1297,0.1247,0.1124,0.098,0.1053,0.0848,0.0798,0.0806,0.0793,0.0736,0.07,0.0963,0.0963,0.0963,0.0964,0,0.0516,0.0561,0.0716,0.0845,0.0888,0.1005,0.114,0.1241,0.1319,0.1448,0.1476,0.1491,0.1416,0.1293,0.1185,0.1051,0.0894,0.0861,0.0838,0.0788,0.0596,0.0564,0.0553,0.0537,0.0706,0.0704,0.0702,0,0.0575,0.0653,0.0822,0.0901,0.0962,0.1107,0.1191,0.1294,0.1379,0.1504,0.1557,0.1531,0.1505,0.1298,0.1085,0.0873,0.0819,0.0725,0.0704,0.0619,0.0548,0.0532,0.052,0.0705,0.0703,0.0702,0.07,0,0.0695,0.0742,0.0857,0.1,0.1105,0.1231,0.1346,0.1425,0.1526,0.1607,0.1673,0.1666,0.1471,0.1271,0.0978,0.0829,0.0705,0.0686,0.0648,0.0608,0.0553,0.05,0.0655,0.0688,0.0689,0.069,0.0691,0.0692,0.078,0.0864,0.0975,0.1106,0.1215,0.1315,0.1406,0.1495,0.1611,0.1706,0.1709,0.1698,0.1469,0.1075,0.0874,0.0562,0.058,0.0481,0.0459,0.0457,0.0437,0.0527,0.047,0.047,0.047,0.047,0.047,0,0.0873,0.0935,0.106,0.1201,0.1285,0.1333,0.1471,0.1533,0.1629,0.1711,0.1738,0.1632,0.1325,0.1039,0.0627,0.0409,0.0365,0.0308,0.034,0.0346,0.0479,0.0475,0.0359,0.0359,0.0359,0.0359,0.0359,0.0359,0.0927,0.1031,0.1063,0.1201,0.1281,0.1373,0.1439,0.154,0.1623,0.1695,0.1706,0.1709,0.1568,0.0853,0.0426,0.0318,0.0242,0.0166,0.0138,0.0268,0.0284,0.03,0.0293,0.014,0.014,0.0055,0.0054,0.0053]}],[{"header":{"parameterUnit":"m.s-1","parameterCategory":2,"la1":30.2991,"la2":30.254,"lo1":-89.0895,"lo2":-89.0444,"dy":0.0017,"dx":0.0017,"nx":28,"ny":28,"refTime":"2023-06-18T21:00:00:Z","depth":"2","parameterNumber":2,"parameterNumberName":"U-component_of_CURRENTS"},"data":[0,0,0,0,0,0,0,0,0,0,0,0,0,0,0,0,0,0,0,0,0,0,0,0,0,0,0,0,0,0,0,0,0,0,0,0,0,0,0,0,0,0,0,0,0,0,0,0,0,0,0,0,0,0,0,0,0,0,0.2465,0.2464,0,0.244,0.244,0.244,0.2559,0.2562,0.2565,0.2568,0.278,0.2783,0.2786,0,0,0,0,0,0,0,0,0,0,0,0,0,0.2471,0.2472,0.2465,0.2464,0.2463,0.244,0.244,0.244,0.2559,0.2562,0.2566,0.2569,0.2779,0.2783,0.2786,0,0,0,0,0,0,0,0,0,0,0,0,0,0.2467,0.2472,0.2465,0.2514,0.2518,0.2439,0.244,0.244,0.2558,0.2562,0.2567,0.257,0.2778,0.2782,0.2787,0.2731,0,0,0.2801,0.2803,0,0,0,0,0,0,0,0,0.2467,0.2467,0.2508,0.251,0.2514,0.25,0.2519,0.2547,0.2557,0.2551,0.2568,0.2572,0.2701,0.2712,0.2705,0.2741,0.275,0.2801,0.2804,0.2806,0.2807,0,0,0,0,0,0,0,0.2467,0.2468,0.2463,0.2506,0.251,0.2486,0.2493,0.2524,0.2613,0.2551,0.2558,0.2542,0.2706,0.27,0.2711,0.2754,0.2801,0.2805,0.2808,0.281,0.3239,0.3248,0,0,0,0,0,0,0.2458,0.2469,0.2463,0.2461,0.2492,0.2483,0.249,0.2507,0.2607,0.2622,0.2539,0.2548,0.269,0.2706,0.272,0.3002,0.2806,0.281,0.2813,0.3231,0.3241,0.3251,0,0,0,0,0,0,0.2459,0.2459,0.2464,0.2456,0.2455,0.2479,0.2496,0.2504,0.2549,0.2593,0.2616,0.2581,0.2694,0.2713,0.285,0.2999,0.2812,0.2816,0.3221,0.3234,0.3246,0.3349,0,0,0,0,0,0,0.246,0.2461,0.2489,0.2457,0.2455,0.2516,0.2491,0.25,0.2526,0.2539,0.2636,0.2657,0.2699,0.2843,0.2855,0.3002,0.282,0.321,0.3227,0.3242,0.3335,0.3364,0.3389,0,0,0,0,0,0.2461,0.2501,0.2492,0.2491,0.2488,0.2518,0.252,0.2551,0.2524,0.2596,0.2659,0.2656,0.2959,0.285,0.2862,0.3015,0.3202,0.3222,0.3241,0.3323,0.3358,0.3389,0,0,0,0,0,0,0.2516,0.2513,0.2505,0.2541,0.2564,0.2539,0.2583,0.256,0.2647,0.2699,0.2699,0.2729,0.2917,0.2955,0.2835,0.3207,0.3106,0.3129,0.3166,0.3199,0.3226,0.3187,0.2824,0,0,0,0,0,0.253,0.2568,0.2558,0.259,0.261,0.2586,0.2596,0.2642,0.2685,0.2726,0.2767,0.2877,0.2993,0.3082,0.3182,0.3332,0.3248,0.3472,0.3499,0.3521,0.3512,0.3481,0.3498,0.3315,0.3314,0.3314,0,0,0.254,0.2552,0.2564,0.2604,0.2615,0.2693,0.2612,0.2696,0.2788,0.2737,0.2889,0.2943,0.3049,0.3254,0.335,0.3313,0.3538,0.3546,0.3562,0.3541,0.3502,0.3517,0.3531,0.3328,0.3325,0.3323,0,0,0.2584,0.2616,0.2662,0.2728,0.2793,0.2807,0.2836,0.2868,0.2933,0.3044,0.3074,0.3195,0.3338,0.3461,0.353,0.3761,0.3656,0.3855,0.3975,0.3946,0.3956,0.3964,0.3862,0.386,0.3896,0.3897,0.3897,0,0.2603,0.2664,0.2683,0.2782,0.2829,0.2863,0.2947,0.3034,0.3115,0.315,0.3152,0.3334,0.3436,0.3638,0.3779,0.3814,0.3744,0.3816,0.3964,0.3971,0.3976,0.387,0.3866,0.3904,0.3903,0.3902,0.3902,0,0.2678,0.2775,0.2826,0.2955,0.3021,0.313,0.323,0.332,0.3349,0.3396,0.3556,0.3647,0.3735,0.3855,0.3894,0.4061,0.3974,0.3956,0.3834,0.3998,0.388,0.3874,0.3914,0.3912,0.391,0.3908,0,0,0.2664,0.2824,0.2886,0.2935,0.3138,0.3181,0.3368,0.3479,0.3531,0.3679,0.3687,0.3976,0.3957,0.4041,0.4109,0.4159,0.4172,0.4112,0.4107,0.3929,0.4041,0.3858,0.3831,0.4154,0.4155,0.4156,0.3928,0,0.2729,0.2892,0.298,0.3159,0.3228,0.3342,0.3478,0.3622,0.3685,0.3733,0.3867,0.3939,0.406,0.4069,0.4159,0.4162,0.4166,0.4231,0.3983,0.3974,0.3722,0.3823,0.3612,0.3382,0.392,0.3919,0.3918,0,0.281,0.2902,0.305,0.319,0.3234,0.3351,0.3475,0.3602,0.3746,0.3779,0.3876,0.3915,0.4079,0.4073,0.4159,0.4187,0.4133,0.4114,0.4102,0.3882,0.378,0.3323,0.3348,0.3905,0.3907,0.3907,0.3908,0,0.2749,0.2964,0.3048,0.313,0.3308,0.3365,0.345,0.3611,0.3688,0.3757,0.3757,0.3916,0.3922,0.3964,0.4017,0.4061,0.3983,0.4005,0.3766,0.3748,0.3495,0.3454,0.3963,0.3963,0.3964,0.3964,0.3965,0,0.2783,0.2875,0.3023,0.3089,0.3169,0.3314,0.3382,0.3475,0.3595,0.3634,0.3761,0.3753,0.3891,0.3886,0.3935,0.3833,0.3908,0.3768,0.3689,0.3532,0.3499,0.391,0.3907,0.3956,0.3957,0.3959,0.3961,0,0.273,0.2837,0.2926,0.3098,0.3131,0.3193,0.3322,0.3362,0.3497,0.3503,0.3515,0.3626,0.3596,0.3681,0.3661,0.3663,0.3608,0.3518,0.3296,0.3197,0.3398,0.3406,0.3224,0.3216,0.3209,0.3203,0.3199,0,0.2738,0.2755,0.2898,0.2917,0.299,0.3074,0.3112,0.3277,0.3297,0.3403,0.3369,0.3367,0.3313,0.3243,0.322,0.316,0.3331,0.2878,0.2956,0.3386,0.3329,0.3347,0.3363,0.2651,0.2642,0.2635,0.2629,0,0.2697,0.2725,0.2788,0.2809,0.2843,0.2875,0.2929,0.2938,0.3073,0.3091,0.3053,0.3025,0.2947,0.2781,0.2706,0.2675,0.2902,0.272,0.3205,0.2885,0.2832,0.2781,0.2818,0.2564,0.2571,0.2575,0.2579,0.2582,0.265,0.2645,0.267,0.2675,0.2694,0.265,0.2609,0.2642,0.2631,0.2619,0.2691,0.258,0.2576,0.2348,0.225,0.2189,0.2403,0.2344,0.2372,0.2408,0.2397,0.2336,0.1968,0.1971,0.1974,0.1976,0.1978,0,0.254,0.2506,0.2508,0.2473,0.2419,0.2498,0.2457,0.238,0.2256,0.2282,0.2244,0.2014,0.1884,0.1905,0.1711,0.1675,0.1744,0.1609,0.1718,0.1781,0.1838,0.1807,0.1217,0.1214,0.1212,0.121,0,0,0.2446,0.2377,0.2346,0.2202,0.2188,0.2074,0.2023,0.1917,0.1893,0.1751,0.1696,0.1832,0.1861,0.1536,0.1474,0.1315,0.1552,0.1257,0.1871,0.2067,0.2121,0.2259,0.2279,0,0,0,0,0]},{"header":{"parameterUnit":"m.s-1","parameterCategory":2,"la1":30.2991,"la2":30.254,"lo1":-89.0895,"lo2":-89.0444,"dy":0.0017,"dx":0.0017,"nx":28,"ny":28,"refTime":"2023-06-18T21:00:00:Z","depth":"2","parameterNumber":3,"parameterNumberName":"V-component_of_CURRENTS"},"data":[0,0,0,0,0,0,0,0,0,0,0,0,0,0,0,0,0,0,0,0,0,0,0,0,0,0,0,0,0,0,0,0,0,0,0,0,0,0,0,0,0,0,0,0,0,0,0,0,0,0,0,0,0,0,0,0,0,0,-0.0169,-0.017,0,-0.0262,-0.0263,-0.0265,-0.03,-0.0299,-0.0298,-0.0298,-0.0361,-0.0364,-0.0366,0,0,0,0,0,0,0,0,0,0,0,0,0,-0.0112,-0.0112,-0.0169,-0.017,-0.0171,-0.0261,-0.0263,-0.0265,-0.03,-0.0299,-0.0298,-0.0297,-0.0361,-0.0363,-0.0366,0,0,0,0,0,0,0,0,0,0,0,0,0,-0.0168,-0.0113,-0.0169,-0.0195,-0.0198,-0.0261,-0.0263,-0.0265,-0.03,-0.0299,-0.0298,-0.0297,-0.036,-0.0363,-0.0367,-0.041,0,0,-0.0378,-0.0379,0,0,0,0,0,0,0,0,-0.0165,-0.0171,-0.0191,-0.0194,-0.0197,-0.0264,-0.0266,-0.0311,-0.03,-0.0267,-0.0298,-0.0296,-0.0324,-0.033,-0.0357,-0.0413,-0.0416,-0.0378,-0.038,-0.0382,-0.0383,0,0,0,0,0,0,0,-0.0161,-0.0167,-0.0211,-0.0192,-0.0195,-0.0233,-0.0239,-0.0276,-0.0303,-0.027,-0.0271,-0.0274,-0.0326,-0.0354,-0.0359,-0.0417,-0.0378,-0.0381,-0.0383,-0.0385,-0.0292,-0.0288,0,0,0,0,0,0,-0.0136,-0.0163,-0.0208,-0.0213,-0.0172,-0.0234,-0.0242,-0.0248,-0.0304,-0.031,-0.0275,-0.0275,-0.0348,-0.0355,-0.0361,-0.0276,-0.0382,-0.0385,-0.0387,-0.0296,-0.0291,-0.0286,0,0,0,0,0,0,-0.0135,-0.0139,-0.0204,-0.0186,-0.0196,-0.0235,-0.0242,-0.025,-0.028,-0.0307,-0.0314,-0.0295,-0.0348,-0.0356,-0.0359,-0.0284,-0.0386,-0.039,-0.0302,-0.0295,-0.0288,-0.0195,0,0,0,0,0,0,-0.0133,-0.0139,-0.014,-0.0185,-0.0196,-0.025,-0.0243,-0.0252,-0.028,-0.0282,-0.0327,-0.0332,-0.0348,-0.0353,-0.0362,-0.029,-0.0392,-0.0308,-0.0299,-0.0291,-0.0204,-0.0186,-0.017,0,0,0,0,0,-0.0131,-0.0134,-0.0139,-0.0145,-0.0195,-0.0251,-0.0262,-0.0289,-0.0282,-0.0309,-0.0299,-0.0331,-0.0301,-0.0355,-0.0366,-0.0293,-0.0312,-0.0301,-0.0291,-0.0212,-0.0189,-0.0171,0,0,0,0,0,0,-0.011,-0.0139,-0.0146,-0.0157,-0.0203,-0.0255,-0.0271,-0.0293,-0.0314,-0.0311,-0.0322,-0.0326,-0.0283,-0.0302,-0.036,-0.0227,-0.0293,-0.0284,-0.0227,-0.0207,-0.0191,-0.0156,-0.0395,0,0,0,0,0,-0.0105,-0.0112,-0.0157,-0.0167,-0.0185,-0.0231,-0.0255,-0.0288,-0.0308,-0.0319,-0.0336,-0.0311,-0.0251,-0.0246,-0.0233,-0.0208,-0.0239,-0.0145,-0.0128,-0.0115,-0.0085,-0.0078,-0.006,-0.0252,-0.0252,-0.0252,0,0,-0.0094,-0.0113,-0.0115,-0.0163,-0.0194,-0.0189,-0.0244,-0.0295,-0.0266,-0.0321,-0.029,-0.0282,-0.023,-0.0168,-0.0147,-0.018,-0.0077,-0.0101,-0.0091,-0.0068,-0.0065,-0.0048,-0.0032,-0.0245,-0.0246,-0.0247,0,0,-0.0067,-0.01,-0.0089,-0.0116,-0.0168,-0.0191,-0.0202,-0.0264,-0.0269,-0.0265,-0.0231,-0.0176,-0.0167,-0.0077,-0.0026,0.0088,0.0007,0.0098,0.0202,0.0208,0.0223,0.0235,0.0194,0.0202,0.011,0.011,0.011,0,-0.0049,-0.0028,-0.01,-0.0089,-0.0076,-0.0173,-0.0141,-0.0165,-0.0215,-0.0173,-0.0238,-0.01,-0.0093,0.0095,0.015,0.0127,0.0083,0.0109,0.0224,0.0236,0.0247,0.0202,0.021,0.0116,0.0115,0.0115,0.0114,0,-0.0007,0.0022,0.0023,0.0036,0.0018,0.0012,-0.0015,-0.0032,-0.0051,-0.0041,0.006,0.0062,0.0165,0.0193,0.02,0.034,0.0264,0.023,0.0155,0.0271,0.0217,0.0223,0.0124,0.0122,0.012,0.0119,0,0,0.0022,0.0058,0.0062,0.0118,0.009,0.0084,0.0134,0.018,0.0255,0.0205,0.032,0.0426,0.0403,0.0464,0.0476,0.0486,0.051,0.039,0.0387,0.0319,0.0471,0.041,0.0409,0.0464,0.0467,0.0469,0.0389,0,0.0096,0.018,0.017,0.0272,0.0325,0.0287,0.0359,0.0379,0.0385,0.0446,0.0479,0.0568,0.0519,0.0555,0.0572,0.0533,0.0535,0.0532,0.0398,0.0395,0.0301,0.0419,0.0426,0.0357,0.0395,0.0395,0.0396,0,0.0156,0.0216,0.0332,0.0444,0.0462,0.0504,0.0605,0.0649,0.0718,0.0718,0.0789,0.0771,0.0852,0.0738,0.0729,0.0711,0.0617,0.0549,0.0543,0.0466,0.0348,0.0259,0.0365,0.0405,0.0404,0.0404,0.0403,0,0.0234,0.034,0.0454,0.0483,0.0572,0.0632,0.0678,0.075,0.0814,0.0886,0.0913,0.0975,0.0976,0.0901,0.0764,0.0735,0.0675,0.0618,0.0481,0.0472,0.0451,0.0437,0.0603,0.0603,0.0603,0.0603,0.0604,0,0.0332,0.0422,0.0502,0.0564,0.0704,0.0726,0.0862,0.0909,0.0986,0.1074,0.1062,0.1101,0.1003,0.0944,0.0813,0.0669,0.0717,0.0532,0.0474,0.0482,0.0473,0.0498,0.0486,0.06,0.0601,0.0602,0.0602,0,0.0398,0.0452,0.0595,0.0713,0.0746,0.0843,0.0945,0.1031,0.1091,0.1186,0.1204,0.1197,0.1103,0.0986,0.0841,0.0727,0.0596,0.0524,0.0516,0.0462,0.0367,0.0362,0.0383,0.0381,0.0379,0.0377,0.0376,0,0.0452,0.0527,0.0682,0.0752,0.0807,0.0924,0.0991,0.1073,0.114,0.123,0.1268,0.1224,0.1177,0.096,0.0762,0.0554,0.0534,0.0411,0.0395,0.0416,0.0357,0.0356,0.0354,0.0382,0.0381,0.038,0.038,0,0.0554,0.0596,0.07,0.0829,0.092,0.1025,0.1118,0.1181,0.1257,0.1313,0.1345,0.1323,0.1135,0.0932,0.0668,0.0523,0.0454,0.0382,0.0442,0.0437,0.041,0.0353,0.0353,0.0371,0.0372,0.0373,0.0373,0.0374,0.0618,0.0689,0.0792,0.0909,0.1005,0.1091,0.1165,0.1232,0.1315,0.1387,0.1366,0.1325,0.1149,0.0794,0.0572,0.0348,0.0367,0.0281,0.0287,0.0293,0.0308,0.028,0.0216,0.0216,0.0216,0.0216,0.0216,0,0.0696,0.0745,0.0852,0.0976,0.1054,0.1106,0.1216,0.126,0.1317,0.1381,0.139,0.1183,0.0984,0.0773,0.0442,0.0247,0.0249,0.0167,0.0227,0.0237,0.0245,0.026,0.0153,0.0153,0.0152,0.0151,0,0,0.0732,0.0819,0.0846,0.0968,0.1048,0.1141,0.12,0.126,0.1315,0.133,0.1314,0.1306,0.1058,0.08,0.0544,0.0352,0.0334,0.0301,0.0373,0.0485,0.0495,0.0332,0.0368,0,0,0,0,0]}],[{"header":{"parameterUnit":"m.s-1","parameterCategory":2,"la1":30.2991,"la2":30.254,"lo1":-89.0895,"lo2":-89.0444,"dy":0.0017,"dx":0.0017,"nx":28,"ny":28,"refTime":"2023-06-18T21:00:00:Z","depth":"4","parameterNumber":2,"parameterNumberName":"U-component_of_CURRENTS"},"data":[0,0,0,0,0,0,0,0,0,0,0,0,0,0,0,0,0,0,0,0,0,0,0,0,0,0,0,0,0,0,0,0,0,0,0,0,0,0,0,0,0,0,0,0,0,0,0,0,0,0,0,0,0,0,0,0,0,0,0.0935,0.0934,0,0.0706,0.0703,0.0699,0.0717,0.0722,0.0726,0.0731,0.067,0.0664,0.0658,0,0,0,0,0,0,0,0,0,0,0,0,0,0.1169,0.1165,0.0936,0.0934,0.0932,0.0707,0.0702,0.0698,0.0716,0.0722,0.0728,0.0733,0.0672,0.0665,0.0657,0,0,0,0,0,0,0,0,0,0,0,0,0,0.1004,0.1164,0.0936,0.0925,0.0923,0.0708,0.0702,0.0697,0.0715,0.0722,0.0729,0.0736,0.0674,0.0665,0.0656,0.0457,0,0,0.0628,0.0624,0,0,0,0,0,0,0,0,0.1013,0.0993,0.0928,0.0926,0.0923,0.076,0.0763,0.063,0.0713,0.0778,0.0731,0.0739,0.072,0.0707,0.0625,0.0454,0.0451,0.0628,0.0622,0.0618,0.0616,0,0,0,0,0,0,0,0.1025,0.1002,0.083,0.0926,0.0923,0.0858,0.0842,0.0735,0.0704,0.0773,0.0778,0.0773,0.0719,0.0633,0.0625,0.045,0.0628,0.062,0.0614,0.0611,0.0572,0.0576,0,0,0,0,0,0,0.1085,0.1013,0.0838,0.0825,0.1003,0.085,0.0832,0.0793,0.0701,0.0697,0.0767,0.0775,0.0646,0.0635,0.0623,0.0757,0.0618,0.061,0.0604,0.0567,0.0573,0.0577,0,0,0,0,0,0,0.109,0.1069,0.0847,0.0928,0.0898,0.0841,0.0796,0.0785,0.0784,0.0697,0.0695,0.0791,0.0651,0.0636,0.065,0.0743,0.0606,0.0597,0.0562,0.0569,0.0575,0.0786,0,0,0,0,0,0,0.1096,0.1071,0.1052,0.0931,0.0896,0.0765,0.079,0.0776,0.0773,0.0782,0.0714,0.0711,0.0655,0.0664,0.0641,0.0728,0.059,0.0556,0.0565,0.0573,0.0774,0.0799,0.0821,0,0,0,0,0,0.1105,0.1045,0.1051,0.1031,0.0874,0.0765,0.0738,0.0713,0.0769,0.0743,0.0767,0.0717,0.0704,0.0658,0.063,0.0717,0.0552,0.0563,0.0572,0.0763,0.0794,0.0821,0,0,0,0,0,0,0.1135,0.1039,0.1044,0.0961,0.0901,0.0776,0.0738,0.0742,0.0719,0.0769,0.072,0.0714,0.0787,0.0705,0.0658,0.0741,0.0637,0.0642,0.0793,0.0821,0.0844,0.0849,0.0583,0,0,0,0,0,0.1134,0.1084,0.099,0.0943,0.0904,0.0836,0.0794,0.0794,0.0761,0.0759,0.0716,0.0724,0.0774,0.077,0.075,0.0728,0.0696,0.0787,0.0811,0.0832,0.0823,0.0925,0.0957,0.061,0.061,0.061,0,0,0.1146,0.1087,0.1064,0.095,0.0892,0.0827,0.0826,0.0786,0.0789,0.0752,0.074,0.0789,0.0796,0.0839,0.0862,0.0794,0.0907,0.0844,0.0862,0.0841,0.0939,0.0972,0.1002,0.0617,0.0616,0.0615,0,0,0.1123,0.108,0.102,0.0982,0.0923,0.0856,0.0874,0.0779,0.0795,0.0784,0.0847,0.0957,0.089,0.0964,0.0996,0.1118,0.1048,0.1137,0.1227,0.1328,0.1357,0.1382,0.135,0.1371,0.1128,0.1128,0.1129,0,0.115,0.1077,0.0992,0.0943,0.0944,0.089,0.0869,0.0824,0.0772,0.0838,0.0824,0.0954,0.096,0.113,0.1212,0.1173,0.1176,0.1119,0.136,0.1384,0.1407,0.1368,0.1388,0.114,0.1138,0.1137,0.1136,0,0.107,0.1061,0.103,0.0958,0.0916,0.0906,0.0856,0.0852,0.0883,0.0902,0.1069,0.1093,0.121,0.125,0.1264,0.1468,0.1399,0.1399,0.1286,0.1454,0.1401,0.1419,0.1156,0.1152,0.1149,0.1146,0,0,0.1044,0.0988,0.0994,0.102,0.0966,0.0922,0.0939,0.0961,0.1043,0.1055,0.1208,0.1341,0.1433,0.1478,0.1542,0.1608,0.1775,0.1581,0.1581,0.1541,0.1925,0.1754,0.1753,0.1844,0.1849,0.1853,0.1811,0,0.1042,0.0992,0.0962,0.098,0.0969,0.0985,0.1002,0.105,0.1096,0.1198,0.1352,0.1493,0.1498,0.1619,0.1714,0.1761,0.1837,0.178,0.177,0.1766,0.1593,0.1776,0.187,0.1823,0.1826,0.1829,0.1831,0,0.0991,0.0981,0.0987,0.1065,0.106,0.1069,0.1162,0.1167,0.1318,0.1395,0.1587,0.1685,0.1862,0.1837,0.1972,0.1944,0.1979,0.1967,0.1966,0.174,0.1631,0.1628,0.1861,0.1858,0.1856,0.1854,0.1852,0,0.1013,0.1029,0.1055,0.1077,0.1097,0.117,0.1185,0.1282,0.1337,0.1546,0.1638,0.1855,0.1969,0.2052,0.2057,0.2059,0.2129,0.2124,0.1983,0.1964,0.2028,0.2001,0.2264,0.2264,0.2264,0.2264,0.2264,0,0.1026,0.106,0.1094,0.1115,0.1204,0.1217,0.1336,0.1383,0.1517,0.1611,0.1769,0.1873,0.2045,0.2105,0.2107,0.2056,0.2184,0.2015,0.1982,0.2109,0.2093,0.2035,0.201,0.2262,0.2263,0.2263,0.2263,0,0.1018,0.1038,0.109,0.1168,0.1214,0.1267,0.1386,0.1448,0.1557,0.1681,0.1766,0.1933,0.1993,0.205,0.2146,0.2084,0.206,0.2029,0.2075,0.2041,0.1804,0.179,0.1869,0.1864,0.1859,0.1855,0.1852,0,0.0962,0.1001,0.1119,0.116,0.1209,0.1312,0.1373,0.1481,0.1527,0.1674,0.1718,0.1868,0.1967,0.19,0.1988,0.195,0.1956,0.1904,0.1952,0.1823,0.1784,0.1777,0.1769,0.1845,0.1844,0.1842,0.1841,0,0.0895,0.0981,0.1034,0.1138,0.1221,0.1286,0.1382,0.1424,0.152,0.1638,0.1676,0.1733,0.1791,0.1836,0.1822,0.1803,0.1909,0.1856,0.1866,0.1912,0.1794,0.1758,0.1756,0.1825,0.1827,0.1829,0.183,0,0.0868,0.0908,0.1016,0.1097,0.1184,0.1216,0.1291,0.1345,0.1407,0.1547,0.1565,0.1665,0.1795,0.1757,0.1728,0.1702,0.1704,0.1652,0.1674,0.1692,0.1658,0.1484,0.1416,0,0,0,0,0,0.0837,0.0881,0.0948,0.1032,0.1105,0.1149,0.1254,0.1315,0.1439,0.1425,0.1489,0.1531,0.1546,0.1593,0.1534,0.1646,0.1699,0.1567,0.1649,0.1736,0.1754,0.1731,0,0,0,0,0,0,0.0829,0.0894,0.0929,0.0946,0.0978,0.1039,0.11,0.1181,0.1182,0.1315,0.1334,0.1423,0.146,0.1561,0.1501,0.151,0.1526,0.1625,0.162,0.1725,0.1742,0.1757,0.1739,0,0,0,0,0]},{"header":{"parameterUnit":"m.s-1","parameterCategory":2,"la1":30.2991,"la2":30.254,"lo1":-89.0895,"lo2":-89.0444,"dy":0.0017,"dx":0.0017,"nx":28,"ny":28,"refTime":"2023-06-18T21:00:00:Z","depth":"4","parameterNumber":3,"parameterNumberName":"V-component_of_CURRENTS"},"data":[0,0,0,0,0,0,0,0,0,0,0,0,0,0,0,0,0,0,0,0,0,0,0,0,0,0,0,0,0,0,0,0,0,0,0,0,0,0,0,0,0,0,0,0,0,0,0,0,0,0,0,0,0,0,0,0,0,0,0.0092,0.0093,0,0.0214,0.0216,0.0218,0.0214,0.0212,0.021,0.0208,0.0303,0.0308,0.0312,0,0,0,0,0,0,0,0,0,0,0,0,0,-0.0018,-0.0016,0.0091,0.0093,0.0094,0.0214,0.0216,0.0218,0.0214,0.0212,0.0209,0.0207,0.0302,0.0307,0.0312,0,0,0,0,0,0,0,0,0,0,0,0,0,0.0062,-0.0016,0.0091,0.0105,0.0107,0.0214,0.0216,0.0219,0.0214,0.0212,0.0209,0.0206,0.03,0.0307,0.0313,0.041,0,0,0.0333,0.0336,0,0,0,0,0,0,0,0,0.0057,0.0066,0.0102,0.0104,0.0107,0.0194,0.0213,0.028,0.0215,0.0176,0.0208,0.0205,0.0265,0.0274,0.0307,0.0414,0.0419,0.0333,0.0337,0.034,0.0342,0,0,0,0,0,0,0,0.0051,0.0061,0.0142,0.0103,0.0107,0.0149,0.0156,0.0226,0.0236,0.0179,0.0179,0.019,0.0266,0.0301,0.0309,0.042,0.0333,0.0339,0.0343,0.0345,0.0413,0.0411,0,0,0,0,0,0,0.0029,0.0056,0.0138,0.0146,0.0072,0.0153,0.0161,0.0171,0.0236,0.0243,0.0192,0.0189,0.0291,0.0302,0.0312,0.0333,0.034,0.0346,0.035,0.0415,0.0412,0.041,0,0,0,0,0,0,0.0026,0.0035,0.0133,0.0102,0.0117,0.0156,0.0168,0.0175,0.02,0.0246,0.0252,0.0209,0.0289,0.0303,0.0338,0.034,0.0349,0.0355,0.0417,0.0414,0.0411,0.0438,0,0,0,0,0,0,0.0022,0.0033,0.0041,0.01,0.0118,0.0201,0.0171,0.0179,0.0211,0.0208,0.0263,0.0269,0.0288,0.0328,0.0344,0.0349,0.036,0.042,0.0416,0.0412,0.044,0.0436,0.0433,0,0,0,0,0,0.0018,0.0059,0.0041,0.0051,0.0124,0.0203,0.0217,0.0237,0.0214,0.0245,0.0244,0.0267,0.0312,0.0334,0.0353,0.036,0.0422,0.0417,0.0412,0.0441,0.0437,0.0433,0,0,0,0,0,0,0.0023,0.0064,0.0045,0.0094,0.0136,0.0201,0.0248,0.0243,0.0275,0.0266,0.0281,0.029,0.0307,0.0324,0.0346,0.0352,0.0356,0.0355,0.0371,0.0368,0.0364,0.0366,0.0365,0,0,0,0,0,0.0023,0.0054,0.0095,0.0131,0.0162,0.0199,0.0233,0.0242,0.0274,0.0286,0.031,0.0311,0.031,0.033,0.0345,0.0393,0.0372,0.0388,0.0385,0.0382,0.0387,0.033,0.0323,0.0394,0.0394,0.0394,0,0,0.0029,0.0059,0.0072,0.0132,0.0175,0.0216,0.0215,0.0279,0.0277,0.0296,0.0316,0.032,0.0313,0.0333,0.0342,0.0351,0.035,0.0376,0.0375,0.0382,0.0324,0.0318,0.0312,0.0391,0.0392,0.0392,0,0,0.0078,0.0094,0.0139,0.018,0.0239,0.0252,0.0263,0.0322,0.0318,0.0353,0.0318,0.0313,0.0366,0.0335,0.0327,0.0317,0.0328,0.0318,0.033,0.0274,0.0269,0.0264,0.0237,0.0229,0.0325,0.0325,0.0325,0,0.0078,0.0129,0.0167,0.0226,0.0246,0.0258,0.0296,0.0309,0.0352,0.0348,0.0354,0.0348,0.0354,0.032,0.0307,0.0314,0.0298,0.0359,0.0274,0.0268,0.0263,0.0236,0.0228,0.0326,0.0326,0.0326,0.0326,0,0.0158,0.0193,0.024,0.028,0.0308,0.0359,0.0362,0.0377,0.0368,0.0369,0.0357,0.0354,0.0348,0.0331,0.0334,0.0285,0.0292,0.0275,0.0298,0.0258,0.0232,0.0222,0.0327,0.0327,0.0327,0.0327,0,0,0.0163,0.0266,0.0277,0.0296,0.0336,0.0371,0.0363,0.0366,0.0356,0.0376,0.037,0.0341,0.0349,0.0334,0.0316,0.0272,0.0226,0.0276,0.0272,0.0273,0.0131,0.0163,0.0156,0.0207,0.0205,0.0204,0.0133,0,0.0201,0.0302,0.0325,0.0372,0.0418,0.041,0.0397,0.0392,0.0385,0.0393,0.0359,0.0362,0.0341,0.0355,0.0303,0.0244,0.0202,0.0249,0.0147,0.0144,0.0197,0.0145,0.0198,0.0126,0.0123,0.0122,0.0121,0,0.0266,0.0313,0.0385,0.0409,0.0426,0.0437,0.0415,0.0413,0.0402,0.0409,0.04,0.0397,0.0347,0.0341,0.0213,0.0252,0.0201,0.0148,0.0144,0.016,0.0158,0.0165,0.0104,0.0105,0.0106,0.0107,0.0108,0,0.0267,0.0347,0.0392,0.0413,0.0447,0.045,0.0444,0.0428,0.0429,0.0434,0.0456,0.0393,0.0391,0.029,0.0211,0.0215,0.0078,0.0061,0.0032,0.0035,0.0021,0.0027,-0.0034,-0.0034,-0.0034,-0.0034,-0.0034,0,0.0302,0.034,0.0406,0.0439,0.0459,0.0472,0.0482,0.0474,0.0481,0.05,0.0478,0.0479,0.0382,0.0311,0.0215,0.0103,0.0074,0.0028,0.001,0.0033,0.004,0.0015,0.0022,-0.0036,-0.0036,-0.0035,-0.0035,0,0.0315,0.0369,0.0425,0.0465,0.0479,0.0498,0.0525,0.0535,0.0534,0.0564,0.0581,0.0547,0.0461,0.0349,0.0201,0.0124,0.0001,-0.0029,0.0027,0.0014,-0.0005,0.0003,-0.0081,-0.0081,-0.0081,-0.008,-0.008,0,0.0341,0.0378,0.0447,0.0481,0.0509,0.0543,0.0564,0.0571,0.0588,0.0598,0.0615,0.0574,0.0541,0.0349,0.0222,0.0039,0.0017,-0.0045,-0.005,-0.0005,-0.0014,-0.0006,0.0001,-0.008,-0.008,-0.008,-0.0079,0,0.0352,0.0384,0.0423,0.0501,0.0546,0.0589,0.0623,0.0645,0.0662,0.0663,0.0661,0.0596,0.0513,0.0373,0.0251,0.011,-0.0013,-0.0043,-0.0044,-0.005,-0.0004,-0.0012,-0.0005,-0.0078,-0.0079,-0.0079,-0.0079,0,0.0354,0.0376,0.0437,0.0505,0.0567,0.0623,0.0641,0.067,0.0687,0.0702,0.0701,0.0619,0.0576,0.041,0.0278,0.0165,0.0126,0.0072,0.0064,0.0061,0.0125,0.0205,0.0173,0,0,0,0,0,0.0354,0.0378,0.0434,0.0507,0.0575,0.0614,0.0672,0.0688,0.0714,0.0723,0.0716,0.0645,0.0497,0.0424,0.0316,0.0264,0.0092,0.0131,0.0022,-0.0073,-0.0074,-0.002,0,0,0,0,0,0,0.0345,0.0394,0.0423,0.0503,0.0557,0.0622,0.067,0.0692,0.0691,0.0708,0.063,0.0603,0.0451,0.0559,0.0309,0.0275,0.0188,0.0061,0.0058,-0.0072,-0.0073,-0.0074,-0.0019,0,0,0,0,0]}]]